Location: Göttingen
(51.5413°N, 9.9158°E)
Time: 22:41:50
(UTC+02:00)

EO-79 - Visible Passes

Search period start: 26 June 2022 00:00
Search period end: 06 July 2022 00:00
Orbit: 587 x 605 km, 98.0° (Epoch: 26 June)

Date Brightness Start Highest point End Pass type
(mag) Time Alt. Az. Time Alt. Az. Time Alt. Az.
26 Jun ? 02:08:58 10° NE 02:12:07 20° E 02:15:15 10° SE visible
26 Jun ? 03:43:56 10° N 03:48:01 51° WNW 03:51:59 11° SW visible
27 Jun ? 02:18:39 10° NE 02:22:07 25° E 02:25:20 11° SSE visible
27 Jun ? 03:53:56 10° N 03:57:54 42° WNW 04:01:53 10° SW visible
28 Jun ? 02:28:23 10° NNE 02:32:07 30° E 02:35:21 13° SSE visible
28 Jun ? 04:03:57 10° N 04:07:47 34° WNW 04:11:36 10° SW visible
29 Jun ? 02:38:10 10° NNE 02:42:06 37° E 02:45:22 14° SSE visible
29 Jun ? 04:14:00 10° N 04:17:37 28° WNW 04:21:15 10° WSW visible
30 Jun ? 02:47:59 10° NNE 02:52:04 46° E 02:55:22 15° S visible
01 Jul ? 02:57:49 10° NNE 03:02:01 57° ESE 03:05:22 15° S visible
02 Jul ? 03:07:42 10° NNE 03:11:56 72° ESE 03:15:22 15° S visible
03 Jul ? 01:44:07 10° ENE 01:45:34 11° E 01:47:02 10° ESE visible
03 Jul ? 03:17:35 10° NNE 03:21:51 88° ESE 03:25:22 15° SSW visible
04 Jul ? 01:53:17 10° NE 01:55:36 14° E 01:57:55 10° ESE visible
04 Jul ? 03:27:30 10° NNE 03:31:45 75° WNW 03:35:21 14° SSW visible
05 Jul ? 02:02:44 10° NE 02:05:37 18° E 02:08:29 10° SE visible
05 Jul ? 03:37:26 10° N 03:41:37 60° WNW 03:45:20 13° SSW visible
